SCP
0 0 0 0 0 0 0 0 0 0 0 0 0 0 0 0 0 0 0 0 0 0 0 0 0 0 0 0 0 0 0 0 0 0 0 0 0 0 0 0 0 0 0 0 0 0 0 0 -0 0 0 -0 0 -0
0 0 0 0 0 0 0 0 0 0 0 0 0 0 0 0 0 0 0 0 0 0 0 0 0 0 0 0 0 0 0 0 0 0 0 0 0 0 0 0 0 0 0 0 0 0 0 -0 0 0 0 -0 -0 -0
0 0 0 0 0 0 0 0 0 0 0 0 0 0 0 0 0 0 0 0 0 0 0 0 0 -0 0 0 0 0 0 0 0 0 0 0 0 0 0 0 0 0 0 0 0 0 0 0 0 0 0 0 0 0
0 0 0 0 0 0 0 0 0 0 0 0 0 0 0 0 0 0 0 0 0 0 0 0 0 0 0 0 0 0 0 0 0 0 0 0 0 0 0 0 0 0 0 0 0 0 0 0 0 0 0 0 0 0
0 0 0 0 0 0 0 0 0 0 0 0 0 0 0 0 0 0 0 0 0 0 0 0 0 0 0 0 0 0 0 0 0 0 0 0 0 0 0 0 0 0 0 0 0 0 0 0 0 0 0 -0 0 0
0 0 0 0 0 0 0 0 0 0 0 0 0 0 0 0 0 0 0 0 0 0 0 0 0 0 0 0 0 0 0 0 0 0 0 0 0 0 0 0 0 0 0 0 0 0 0 0 0 0 0 0 0 0
0 0 0 0 0 0 0 0 0 0 0 0 0 0 0 0 0 0 0 0 0 0 0 0 0 0 0 0 0 0 0 0 0 0 0 0 0 0 0 0 0 -0 -0 0 0 0 0 0 0 0 -0 -0 0 0
0 0 0 0 0 0 0 0 0 0 0 0 0 0 0 0 0 0 0 0 0 0 0 0 0 0 0 0 0 0 0 0 0 0 0 0 0 0 0 0 -0 -0 -0 0 0 0 0 0 0 -0 -0 0 0 0
0 0 0 0 0 0 0 0 0 0 0 0 0 0 0 0 0 0 0 0 0 0 0 0 0 0 0 0 0 0 0 0 0 0 0 0 0 0 0 -0 0 0 0 0 0 0 0 0 -0 -0 0 0 -0 0
0 0 0 0 0 0 0 0 0 0 0 0 0 0 0 0 0 0 0 0 0 0 0 0 0 0 0 0 0 0 0 0 0 0 0 0 -0 0 0 0 0 0 0 0 0 0 0 0 -0 -0 0 0 0 0
0 0 0 0 0 0 0 0 0 0 0 0 0 0 0 0 0 0 0 0 0 0 0 0 0 0 0 0 0 0 0 0 0 0 0 0 -0 -0 -0 -0 0 0 0 0 0 0 0 0 -0 0 0 0 0 0
0 0 0 0 0 0 0 0 0 0 0 0 0 0 0 0 0 0 0 0 0 0 0 0 0 0 0 0 0 0 0 0 0 0 0 0 -0 -0 -0 -0 -0 0 0 0 0 0 0 0 0 0 0 0 0 0
0 0 0 0 0 0 0 0 0 0 0 0 0 0 0 0 0 0 0 0 0 0 0 0 0 0 0 0 0 0 0 0 0 0 0 0 0 0 0 -0 -0 0 0 0 0 0 -0 -0 0 0 -0 0 0 0
0 0 0 0 0 0 0 0 0 0 0 0 0 0 0 0 0 0 0 0 0 0 0 0 0 0 0 0 0 0 0 0 0 0 0 0 -0 0 -0 -0 -0 0 0 0 0 0 -0 -0 0 0 -0 0 0 0
0 0 0 0 0 0 0 0 0 0 0 0 0 0 0 0 0 0 0 0 0 0 0 0 0 0 0 0 0 0 0 0 0 0 0 0 0 0 -0 -0 0 0 0 0 0 -0 -0 -0 0 0 0 0 0 0
0 0 0 0 0 0 0 0 0 0 0 0 0 0 0 0 0 0 0 0 0 0 0 0 0 0 0 0 0 0 0 0 0 -0 -0 -0 -0 -0 -0 -0 0 0 0 0 0 -0 -0 0 0 0 0 0 0 0
0 0 0 0 0 0 0 0 0 0 0 0 0 0 0 0 0 0 0 0 0 0 0 0 0 0 0 0 0 0 0 0 0 0 -0 -0 -0 -0 -0 -0 -0 0 0 0 0 -0 -0 0 -0 -0 0 0 0 0
0 0 0 0 0 0 0 0 0 0 0 0 0 0 0 0 0 0 0 0 0 0 0 0 0 0 0 0 0 0 0 0 0 0 -0 -0 -0 -0 -0 -0 -0 0 0 0 0 0 0 0 -0 0 0 0 0 0
0 0 0 0 0 0 0 0 0 0 0 0 0 0 0 0 0 0 0 0 0 0 0 0 0 0 0 0 0 0 0 0 0 -0 -0 0 0 -0 -0 0 -0 -0 0 0 0 -0 0 0 0 0 0 0 0 0
0 0 0 0 0 0 0 0 0 0 0 0 0 0 0 0 0 0 0 0 0 0 0 0 0 0 0 0 0 0 -0 0 0 0 -0 -0 -0 -0 -0 -0 0 -0 0 0 -0 -0 0 -0 0 0 0 0 0 0
0 0 0 0 0 0 0 0 0 0 0 0 0 0 0 0 0 0 0 0 0 0 0 0 0 0 0 0 0 0 -0 -0 -0 -0 -0 0 0 -0 0 0 0 -0 0 0 -0 -0 -0 -0 0 0 0 0 0 0
0 0 0 0 0 0 0 0 0 0 0 0 0 0 0 0 0 0 0 0 0 0 0 0 0 0 -0 -0 0 0 0 0 0 0 0 0 0 0 0 0 0 -0 0 0 0 0 -0 -0 0 0 0 0 0 0
0 0 0 0 0 0 0 0 0 0 0 0 0 0 0 0 0 0 0 0 0 0 0 0 0 -0 -0 -0 0 0 0 0 0 0 0 0 0 0 0 0 0 -0 0 0 0 0 0 0 0 0 0 0 0 0
0 0 0 0 0 0 0 0 0 0 0 0 0 0 0 0 0 0 0 0 0 0 0 -0 -0 0 0 0 0 0 0 0 0 0 0 0 0 0 0 0 0 0 0 0 0 0 0 0 0 0 0 0 0 0
0 0 0 0 0 0 0 0 0 0 0 0 0 0 0 0 0 0 0 0 0 0 0 0 0 0 0 0 0 0 0 0 0 0 0 0 0 0 0 0 0 0 0 0 0 0 0 0 0 0 0 0 0 0
-0 -0 -0 0 0 0 -0 -0 -0 0 -0 -0 -0 -0 -0 -0 -0 -0 0 0 0 0 0 0 0 0 0 0 0 0 0 0 0 0 0 0 0 0 0 0 0 0 0 0 0 0 0 0 0 0 0 0 0 0
0 0 -0 0 -0 0 0 0 -0 -0 0 0 -0 -0 0 -0 -0 -0 0 0 0 0 0 0 0 0 0 0 0 0 0 0 0 0 0 0 0 0 0 0 0 0 0 0 0 0 0 0 0 0 0 0 0 0
0 0 0 0 0 0 0 0 0 0 0 -0 -0 0 0 0 0 -0 -0 -0 -0 -0 -0 -0 -0 -0 -0 -0 -0 -0 -0 -0 -0 0 0 0 0 0 0 0 0 0 0 0 0 0 0 0 0 0 0 0 0 0
0 0 0 0 0 0 0 0 0 0 0 0 0 0 0 0 0 -0 -0 0 0 0 -0 -0 -0 -0 -0 -0 -0 -0 -0 -0 0 0 0 0 0 0 0 0 0 0 0 -0 0 0 0 0 0 0 0 0 0 0
0 0 0 0 0 0 0 0 0 0 0 0 0 0 0 0 0 0 0 -0 0 0 0 0 0 0 0 0 0 0 0 0 0 0 0 0 0 0 0 0 0 0 0 0 0 0 -0 0 0 0 0 0 0 0
0 0 0 0 0 0 0 0 0 0 0 0 0 0 0 0 0 0 0 0 0 0 0 0 0 0 0 0 0 0 0 0 0 0 0 0 0 0 0 0 0 0 0 0 0 -0 -0 0 0 0 0 0 0 0
0 0 0 0 0 0 0 0 0 0 0 0 0 0 0 0 0 0 0 0 0 0 0 0 0 0 0 0 0 0 0 0 0 0 0 0 0 0 0 0 0 0 0 0 0 -0 -0 0 -0 -0 0 0 0 0
0 0 0 0 0 0 0 0 0 0 0 0 0 0 0 0 0 0 0 0 0 0 0 0 0 0 0 0 0 0 0 0 0 0 0 0 0 0 0 0 0 0 0 0 0 0 -0 -0 -0 -0 -0 0 0 0
Wind_Speed_500mb
41 43 42 39 31 32 33 39 38 34 33 32 31 31 35 39 35 26 21 15 18 14 53 23 10 15 15 9 6 14 16 4 7 8 1 5 2 5 6 8 12 6 1 4 6 7 15 15 41 5 19 64 42 59
51 48 45 39 37 37 39 40 35 32 29 29 28 30 33 35 37 34 21 23 27 28 50 68 72 66 69 58 42 13 9 3 8 3 2 4 6 5 6 8 4 7 11 5 11 12 34 77 48 48 55 50 57 63
49 43 41 40 38 33 29 34 37 31 28 27 27 26 31 33 33 35 37 34 33 19 50 24 11 10 4 9 18 21 14 14 11 19 8 4 10 6 6 10 7 9 8 7 6 11 27 47 62 67 54 57 74 77
47 42 44 42 40 40 37 34 31 29 25 26 29 26 30 32 32 31 36 37 32 11 11 14 21 53 49 45 39 49 56 49 50 31 11 6 5 17 7 11 8 16 9 12 16 33 38 45 43 60 61 68 70 60
56 51 49 51 49 45 40 35 31 24 25 26 26 27 29 32 32 30 35 21 7 5 9 33 56 9 14 11 23 35 37 47 37 12 9 6 8 7 5 9 7 11 11 5 11 39 54 48 65 66 63 67 65 70
64 59 54 52 48 47 41 31 27 27 27 25 25 27 27 32 31 29 5 5 5 8 12 8 24 15 25 19 20 21 29 37 29 15 10 10 11 9 6 9 17 34 25 43 33 35 48 62 59 62 68 69 72 67
54 51 53 49 43 43 37 30 26 26 24 25 25 26 27 30 31 19 12 9 11 13 9 15 20 15 26 29 21 13 9 11 19 12 16 14 14 20 5 12 19 43 49 43 48 41 40 34 62 65 62 70 67 68
51 46 42 38 41 37 35 30 29 27 24 25 24 25 28 29 31 12 4 1 18 20 10 5 11 21 15 12 15 12 12 12 8 6 2 6 4 9 6 17 54 50 37 47 40 48 56 63 62 62 63 67 69 65
50 44 35 38 39 32 30 27 29 24 22 21 22 23 25 10 3 3 11 12 9 12 6 8 4 7 16 13 13 10 6 4 3 3 6 5 1 4 14 37 43 49 37 49 49 57 55 54 56 64 64 71 65 65
44 36 37 34 33 29 27 29 26 21 18 17 15 8 6 5 7 12 9 4 7 9 11 10 9 7 10 8 9 10 6 4 5 4 5 3 5 19 28 33 36 42 37 33 49 50 55 50 56 63 60 66 60 57
35 36 36 37 36 33 31 27 23 19 15 11 8 8 10 9 8 7 5 8 9 7 12 14 20 10 12 7 8 3 5 4 5 6 2 3 5 11 39 29 29 34 28 38 43 42 43 47 55 60 62 59 55 50
37 38 40 40 33 32 30 26 23 21 15 13 8 10 7 8 7 4 6 4 7 7 9 6 11 18 15 12 6 2 2 2 9 2 2 4 6 37 44 27 23 27 32 42 46 44 45 47 54 51 60 51 46 47
44 45 40 33 33 32 29 26 23 20 17 10 8 4 5 7 2 10 9 6 4 4 4 15 14 8 10 10 4 3 2 9 8 2 2 5 37 41 45 28 30 25 33 41 49 43 43 47 47 45 57 42 40 47
36 34 32 33 34 32 28 26 23 20 13 10 9 6 9 8 9 9 8 6 8 11 17 14 8 8 7 4 6 5 8 1 4 9 5 8 39 39 40 32 26 33 36 41 47 47 43 46 49 44 51 36 38 46
35 31 32 33 33 30 28 26 24 23 12 9 9 9 12 20 13 4 18 14 12 15 16 7 4 4 8 5 7 3 4 6 3 5 6 27 33 32 37 29 27 33 36 39 45 46 40 43 46 47 46 35 35 42
33 31 35 34 33 30 26 27 25 19 8 9 14 7 15 6 9 7 3 10 15 16 7 3 5 5 9 6 4 10 10 9 7 8 24 29 24 29 33 26 32 37 37 35 41 44 38 41 44 42 42 34 34 42
38 30 33 34 34 32 30 29 18 11 10 10 14 23 30 29 29 32 17 14 16 15 4 3 5 9 11 7 6 6 9 7 7 18 15 18 21 24 27 33 32 39 41 33 36 42 35 36 38 45 35 33 29 37
34 27 29 38 38 37 32 27 12 12 15 21 15 24 26 25 24 27 35 26 26 20 11 9 5 5 8 7 5 7 2 4 7 21 26 28 14 17 22 35 37 37 38 32 28 37 33 30 42 38 44 30 23 36
34 33 33 38 44 33 17 17 12 9 22 22 30 41 42 42 43 39 38 41 38 38 16 13 9 8 8 15 12 4 15 21 26 29 31 25 28 24 24 38 34 38 37 34 23 33 36 25 35 35 38 29 27 32
31 32 33 39 40 14 10 10 18 11 10 10 20 31 34 39 43 46 45 43 44 30 17 11 11 29 28 36 37 47 33 43 43 38 38 36 28 30 30 37 39 34 29 29 19 25 32 24 20 34 48 41 26 22
27 41 41 44 39 16 6 7 10 12 14 14 16 21 19 26 34 37 41 39 35 20 19 38 51 57 58 64 62 58 58 49 42 44 49 44 33 31 29 28 27 24 26 23 13 17 26 31 22 25 24 37 40 27
23 23 21 27 12 13 13 16 12 9 12 19 33 40 29 28 39 46 43 30 31 46 50 55 61 63 65 64 58 46 38 35 40 42 41 42 42 29 23 27 26 26 24 18 9 10 17 28 30 24 25 26 29 38
23 20 12 10 8 12 11 12 12 10 7 7 6 6 8 8 11 15 10 19 32 44 43 44 46 49 54 53 52 48 41 41 39 39 39 38 29 31 33 31 27 26 24 14 7 6 10 17 23 28 29 29 27 28
18 17 9 10 15 7 8 9 12 10 10 6 4 7 7 11 9 8 7 17 45 43 42 33 33 40 40 39 39 37 36 36 39 42 36 33 32 31 30 27 21 17 13 13 4 4 5 11 10 14 23 29 27 25
7 11 9 11 13 9 8 6 10 8 7 9 7 8 8 9 5 7 8 20 22 31 32 28 25 26 26 22 7 8 6 6 8 10 13 13 8 14 10 13 12 11 14 17 6 1 1 4 6 7 7 13 22 29
5 15 21 20 11 11 11 6 10 11 5 6 9 9 7 6 7 11 8 11 12 11 20 22 21 18 15 16 10 14 8 9 15 12 10 6 4 8 13 9 8 5 9 12 4 6 7 4 12 11 8 2 5 15
9 12 20 22 15 13 10 12 14 7 9 10 7 7 6 7 11 8 7 6 12 17 16 15 15 15 16 22 23 15 15 19 23 23 21 17 12 7 8 9 7 7 16 18 14 12 3 6 7 10 15 12 5 2
19 10 11 18 23 24 7 8 10 9 8 13 6 9 7 9 7 4 7 15 23 27 28 33 38 49 59 62 55 43 36 30 28 27 33 36 29 19 22 13 9 2 13 17 18 19 16 8 11 8 7 11 12 7
14 20 13 16 15 13 15 13 14 18 17 18 6 6 10 12 20 32 54 65 67 67 68 64 56 44 37 33 36 43 43 34 30 28 24 22 22 26 21 15 12 12 12 24 24 24 17 16 7 10 9 6 9 11
15 27 16 11 10 12 18 29 16 26 28 32 33 27 32 48 61 38 33 38 35 13 8 13 20 24 27 28 29 33 37 38 37 31 27 29 22 19 23 17 17 15 8 4 15 24 23 17 13 16 14 10 11 8
10 6 11 13 11 16 31 30 31 27 20 16 27 34 34 26 19 46 54 36 30 27 23 22 24 25 29 34 34 31 28 28 29 31 30 18 19 21 22 21 24 20 14 11 24 28 22 22 15 14 12 11 10 6
10 14 6 5 10 13 13 3 4 3 3 5 9 8 4 3 12 37 49 30 31 33 29 29 32 28 27 24 23 16 17 25 27 23 20 19 18 20 22 25 27 24 18 17 20 26 25 19 17 15 13 10 5 3
9 10 15 8 8 10 4 2 3 8 7 6 16 24 20 13 11 34 47 47 37 35 37 35 31 28 25 19 19 20 19 18 19 19 17 19 25 27 33 30 32 22 23 28 23 25 17 17 21 20 22 14 9 9
Wind_Direction_500mb
247 267 271 269 270 277 285 296 301 303 305 305 311 328 334 336 341 347 328 310 309 273 292 269 224 214 231 200 162 318 336 285 352 32 28 294 264 293 287 248 277 252 215 296 331 279 284 351 347 341 292 303 308 306
260 268 263 262 265 278 279 289 286 291 293 296 308 321 327 329 330 332 338 316 303 278 279 288 285 276 272 272 263 249 241 293 253 100 263 255 274 266 206 286 312 276 199 209 213 238 283 297 291 296 308 300 309 311
264 262 261 262 268 277 277 280 286 282 286 290 300 311 316 321 323 326 327 326 325 300 308 309 328 222 327 264 259 219 228 212 225 264 245 250 260 136 240 236 236 284 268 240 301 265 271 298 303 301 308 305 312 313
252 254 260 260 267 263 281 282 275 277 278 288 294 300 310 313 317 323 319 316 311 289 295 290 286 294 290 282 267 252 258 256 282 263 260 244 230 203 236 252 231 264 295 248 257 281 307 298 298 303 311 314 315 309
247 249 257 257 264 259 269 273 263 269 279 285 288 297 303 305 314 321 309 305 285 289 285 292 316 320 18 343 285 264 251 254 244 214 215 232 239 254 245 270 250 208 231 268 283 301 290 292 308 312 313 318 316 317
249 254 263 257 256 252 258 248 256 270 271 276 284 292 298 302 313 330 279 260 262 21 313 307 303 299 356 355 322 290 256 253 227 196 205 235 218 203 248 264 251 273 274 297 290 303 304 304 313 320 319 321 322 319
245 251 258 249 252 245 238 242 256 262 267 273 278 286 292 298 306 308 279 279 277 301 305 304 299 300 338 346 340 324 330 270 241 225 210 222 217 207 233 270 329 331 321 320 320 313 311 311 316 324 327 329 327 325
247 248 247 243 232 226 232 240 250 256 260 266 275 284 291 296 299 311 5 11 248 257 275 274 281 310 336 313 315 288 282 262 243 266 186 215 235 227 274 325 324 317 308 297 305 308 311 318 323 328 333 333 335 336
237 240 233 228 219 224 230 239 248 246 250 261 275 288 293 271 213 260 297 291 242 231 260 223 246 276 319 305 293 292 309 342 299 233 266 155 345 298 277 298 302 319 300 304 319 316 326 325 329 333 334 335 339 336
215 217 208 214 223 228 238 238 234 231 239 256 274 258 231 189 225 291 293 225 207 215 229 250 243 267 294 307 298 322 337 327 318 253 53 18 275 269 323 326 319 322 318 316 321 324 327 323 333 334 333 338 340 340
207 211 219 227 234 238 229 220 216 216 223 210 219 229 198 207 253 234 240 212 189 235 217 240 234 241 263 207 244 278 299 303 322 265 191 240 277 293 344 332 346 323 313 327 338 330 329 328 336 336 333 343 347 353
213 214 221 224 229 217 207 203 205 203 197 198 214 266 245 211 212 217 225 201 206 240 210 216 300 265 280 248 244 314 266 307 260 332 244 277 257 348 350 351 334 314 316 340 347 336 335 335 338 337 337 346 356 7
221 219 226 218 198 195 194 195 199 200 205 214 211 212 210 187 57 208 205 231 234 231 11 334 318 270 276 253 234 81 272 237 304 284 43 305 316 333 341 338 335 315 324 344 348 346 344 343 342 342 345 354 5 14
199 196 191 188 186 188 188 190 191 185 172 193 179 264 188 206 231 200 200 194 312 264 297 300 300 253 259 272 178 213 234 45 288 17 318 266 312 323 335 336 329 324 328 342 349 351 348 347 350 342 354 360 10 12
188 185 185 183 183 184 184 185 183 181 181 201 204 231 221 229 236 242 257 272 314 304 277 278 283 268 294 268 205 315 264 74 175 238 245 307 326 332 346 349 341 328 325 343 348 351 350 348 355 350 1 5 18 23
181 182 189 182 181 178 176 177 176 178 212 226 229 250 246 263 254 147 199 314 349 329 323 274 307 274 226 246 219 226 127 199 240 230 300 318 329 343 344 339 347 336 333 340 346 350 350 354 354 351 3 13 35 30
180 184 178 174 170 169 177 176 173 201 228 230 242 238 253 275 266 273 264 281 298 295 206 127 255 234 300 256 241 162 188 203 233 338 334 340 337 341 344 343 347 347 337 335 345 348 355 355 5 8 11 19 41 40
181 178 177 176 172 171 178 186 200 215 237 241 245 249 240 240 248 260 275 274 284 259 225 216 200 244 221 220 268 259 183 270 313 345 342 342 322 334 338 345 343 343 337 337 338 353 352 358 6 12 16 25 49 47
168 168 175 180 183 173 180 201 214 253 241 245 254 261 264 270 270 266 270 276 271 268 246 190 215 218 224 239 195 288 305 298 297 328 324 319 334 311 317 334 341 341 342 353 336 360 355 351 6 18 18 25 38 57
178 176 171 170 178 170 195 211 193 249 255 248 249 259 257 259 269 274 272 266 264 252 208 205 204 241 246 261 271 288 284 294 302 302 300 303 302 314 315 320 332 342 340 344 347 4 9 12 15 24 33 35 39 76
169 167 176 176 186 201 235 218 230 242 261 252 271 262 265 266 262 259 262 260 250 228 219 238 249 253 256 257 266 271 281 286 282 284 281 294 308 298 314 324 334 318 334 346 349 7 24 29 21 21 8 25 41 53
180 163 162 185 199 205 250 229 232 281 273 257 274 274 263 249 255 261 269 235 237 241 244 247 254 260 264 267 271 271 276 280 281 289 293 292 285 287 301 320 332 335 350 350 13 7 38 37 35 35 31 26 32 50
179 176 154 159 179 213 254 232 224 227 239 256 248 252 245 248 248 243 238 231 241 248 252 258 264 270 272 278 278 277 275 273 274 281 288 297 278 271 279 298 308 329 335 331 345 348 26 38 38 40 41 43 43 47
156 167 186 197 208 244 240 223 220 239 235 238 240 259 255 232 250 235 244 243 248 254 250 259 272 280 277 271 268 273 282 285 282 279 283 282 276 275 269 279 283 309 289 287 329 279 3 29 23 36 41 45 48 54
169 201 195 213 211 215 224 233 210 217 246 208 221 246 258 225 231 236 232 276 273 258 248 247 252 249 254 266 225 166 187 215 212 227 235 250 290 284 260 256 270 267 263 249 223 54 259 69 54 11 14 42 48 54
216 208 194 199 210 206 208 226 208 207 210 227 236 245 246 204 231 242 229 249 255 209 195 194 194 192 185 180 184 163 156 197 210 203 188 193 346 308 259 261 294 223 237 254 177 243 266 184 86 78 40 348 80 60
239 235 219 216 218 217 232 256 264 242 230 224 223 206 212 235 238 244 189 166 164 173 186 197 217 224 243 245 248 249 283 266 250 238 228 232 257 293 177 211 265 299 256 267 204 215 275 210 136 102 87 58 34 101
231 250 218 216 217 232 247 230 212 224 231 225 220 206 220 220 246 189 205 219 221 224 234 243 254 268 274 276 270 257 257 256 254 244 247 252 251 217 226 237 232 220 182 218 221 221 224 180 136 110 105 85 73 63
228 228 230 244 231 222 231 223 221 221 218 211 225 220 245 251 277 283 284 283 275 272 270 270 269 265 257 252 242 235 234 227 217 228 212 188 192 200 211 209 202 224 219 218 223 217 182 176 132 115 131 125 101 78
235 226 221 236 218 225 222 211 232 231 232 230 236 248 265 277 292 311 322 331 321 294 253 241 224 222 224 220 200 188 187 188 185 183 178 171 178 192 174 180 190 207 172 136 149 155 163 174 178 159 158 136 121 95
244 233 228 231 256 246 252 257 263 273 267 258 250 252 263 286 332 11 17 56 87 79 91 106 127 139 144 144 143 149 165 179 175 165 162 151 159 183 199 197 207 212 176 151 167 166 170 173 164 166 171 138 130 126
219 208 221 260 277 314 360 52 41 47 63 41 29 16 353 313 15 24 38 62 75 82 89 99 96 102 116 134 136 126 139 143 159 172 173 173 182 184 179 180 198 207 193 182 193 191 180 162 155 167 175 169 198 199
224 209 214 270 290 301 281 174 148 122 80 58 34 29 34 28 19 9 26 54 71 91 97 93 91 91 99 117 115 134 142 147 156 154 163 182 183 169 161 170 182 182 179 187 189 184 192 210 210 206 194 205 204 199
Wind_Speed_850mb
41 43 42 39 31 32 33 39 38 34 33 32 31 31 35 39 35 26 21 15 18 14 53 23 10 15 15 9 6 14 16 4 7 8 1 5 2 5 6 8 12 6 1 4 6 7 15 15 41 5 19 64 42 59
51 48 45 39 37 37 39 40 35 32 29 29 28 30 33 35 37 34 21 23 27 28 50 68 72 66 69 58 42 13 9 3 8 3 2 4 6 5 6 8 4 7 11 5 11 12 34 77 48 48 55 50 57 63
49 43 41 40 38 33 29 34 37 31 28 27 27 26 31 33 33 35 37 34 33 19 50 24 11 10 4 9 18 21 14 14 11 19 8 4 10 6 6 10 7 9 8 7 6 11 27 47 62 67 54 57 74 77
47 42 44 42 40 40 37 34 31 29 25 26 29 26 30 32 32 31 36 37 32 11 11 14 21 53 49 45 39 49 56 49 50 31 11 6 5 17 7 11 8 16 9 12 16 33 38 45 43 60 61 68 70 60
56 51 49 51 49 45 40 35 31 24 25 26 26 27 29 32 32 30 35 21 7 5 9 33 56 9 14 11 23 35 37 47 37 12 9 6 8 7 5 9 7 11 11 5 11 39 54 48 65 66 63 67 65 70
64 59 54 52 48 47 41 31 27 27 27 25 25 27 27 32 31 29 5 5 5 8 12 8 24 15 25 19 20 21 29 37 29 15 10 10 11 9 6 9 17 34 25 43 33 35 48 62 59 62 68 69 72 67
54 51 53 49 43 43 37 30 26 26 24 25 25 26 27 30 31 19 12 9 11 13 9 15 20 15 26 29 21 13 9 11 19 12 16 14 14 20 5 12 19 43 49 43 48 41 40 34 62 65 62 70 67 68
51 46 42 38 41 37 35 30 29 27 24 25 24 25 28 29 31 12 4 1 18 20 10 5 11 21 15 12 15 12 12 12 8 6 2 6 4 9 6 17 54 50 37 47 40 48 56 63 62 62 63 67 69 65
50 44 35 38 39 32 30 27 29 24 22 21 22 23 25 10 3 3 11 12 9 12 6 8 4 7 16 13 13 10 6 4 3 3 6 5 1 4 14 37 43 49 37 49 49 57 55 54 56 64 64 71 65 65
44 36 37 34 33 29 27 29 26 21 18 17 15 8 6 5 7 12 9 4 7 9 11 10 9 7 10 8 9 10 6 4 5 4 5 3 5 19 28 33 36 42 37 33 49 50 55 50 56 63 60 66 60 57
35 36 36 37 36 33 31 27 23 19 15 11 8 8 10 9 8 7 5 8 9 7 12 14 20 10 12 7 8 3 5 4 5 6 2 3 5 11 39 29 29 34 28 38 43 42 43 47 55 60 62 59 55 50
37 38 40 40 33 32 30 26 23 21 15 13 8 10 7 8 7 4 6 4 7 7 9 6 11 18 15 12 6 2 2 2 9 2 2 4 6 37 44 27 23 27 32 42 46 44 45 47 54 51 60 51 46 47
44 45 40 33 33 32 29 26 23 20 17 10 8 4 5 7 2 10 9 6 4 4 4 15 14 8 10 10 4 3 2 9 8 2 2 5 37 41 45 28 30 25 33 41 49 43 43 47 47 45 57 42 40 47
36 34 32 33 34 32 28 26 23 20 13 10 9 6 9 8 9 9 8 6 8 11 17 14 8 8 7 4 6 5 8 1 4 9 5 8 39 39 40 32 26 33 36 41 47 47 43 46 49 44 51 36 38 46
35 31 32 33 33 30 28 26 24 23 12 9 9 9 12 20 13 4 18 14 12 15 16 7 4 4 8 5 7 3 4 6 3 5 6 27 33 32 37 29 27 33 36 39 45 46 40 43 46 47 46 35 35 42
33 31 35 34 33 30 26 27 25 19 8 9 14 7 15 6 9 7 3 10 15 16 7 3 5 5 9 6 4 10 10 9 7 8 24 29 24 29 33 26 32 37 37 35 41 44 38 41 44 42 42 34 34 42
38 30 33 34 34 32 30 29 18 11 10 10 14 23 30 29 29 32 17 14 16 15 4 3 5 9 11 7 6 6 9 7 7 18 15 18 21 24 27 33 32 39 41 33 36 42 35 36 38 45 35 33 29 37
34 27 29 38 38 37 32 27 12 12 15 21 15 24 26 25 24 27 35 26 26 20 11 9 5 5 8 7 5 7 2 4 7 21 26 28 14 17 22 35 37 37 38 32 28 37 33 30 42 38 44 30 23 36
34 33 33 38 44 33 17 17 12 9 22 22 30 41 42 42 43 39 38 41 38 38 16 13 9 8 8 15 12 4 15 21 26 29 31 25 28 24 24 38 34 38 37 34 23 33 36 25 35 35 38 29 27 32
31 32 33 39 40 14 10 10 18 11 10 10 20 31 34 39 43 46 45 43 44 30 17 11 11 29 28 36 37 47 33 43 43 38 38 36 28 30 30 37 39 34 29 29 19 25 32 24 20 34 48 41 26 22
27 41 41 44 39 16 6 7 10 12 14 14 16 21 19 26 34 37 41 39 35 20 19 38 51 57 58 64 62 58 58 49 42 44 49 44 33 31 29 28 27 24 26 23 13 17 26 31 22 25 24 37 40 27
23 23 21 27 12 13 13 16 12 9 12 19 33 40 29 28 39 46 43 30 31 46 50 55 61 63 65 64 58 46 38 35 40 42 41 42 42 29 23 27 26 26 24 18 9 10 17 28 30 24 25 26 29 38
23 20 12 10 8 12 11 12 12 10 7 7 6 6 8 8 11 15 10 19 32 44 43 44 46 49 54 53 52 48 41 41 39 39 39 38 29 31 33 31 27 26 24 14 7 6 10 17 23 28 29 29 27 28
18 17 9 10 15 7 8 9 12 10 10 6 4 7 7 11 9 8 7 17 45 43 42 33 33 40 40 39 39 37 36 36 39 42 36 33 32 31 30 27 21 17 13 13 4 4 5 11 10 14 23 29 27 25
7 11 9 11 13 9 8 6 10 8 7 9 7 8 8 9 5 7 8 20 22 31 32 28 25 26 26 22 7 8 6 6 8 10 13 13 8 14 10 13 12 11 14 17 6 1 1 4 6 7 7 13 22 29
5 15 21 20 11 11 11 6 10 11 5 6 9 9 7 6 7 11 8 11 12 11 20 22 21 18 15 16 10 14 8 9 15 12 10 6 4 8 13 9 8 5 9 12 4 6 7 4 12 11 8 2 5 15
9 12 20 22 15 13 10 12 14 7 9 10 7 7 6 7 11 8 7 6 12 17 16 15 15 15 16 22 23 15 15 19 23 23 21 17 12 7 8 9 7 7 16 18 14 12 3 6 7 10 15 12 5 2
19 10 11 18 23 24 7 8 10 9 8 13 6 9 7 9 7 4 7 15 23 27 28 33 38 49 59 62 55 43 36 30 28 27 33 36 29 19 22 13 9 2 13 17 18 19 16 8 11 8 7 11 12 7
14 20 13 16 15 13 15 13 14 18 17 18 6 6 10 12 20 32 54 65 67 67 68 64 56 44 37 33 36 43 43 34 30 28 24 22 22 26 21 15 12 12 12 24 24 24 17 16 7 10 9 6 9 11
15 27 16 11 10 12 18 29 16 26 28 32 33 27 32 48 61 38 33 38 35 13 8 13 20 24 27 28 29 33 37 38 37 31 27 29 22 19 23 17 17 15 8 4 15 24 23 17 13 16 14 10 11 8
10 6 11 13 11 16 31 30 31 27 20 16 27 34 34 26 19 46 54 36 30 27 23 22 24 25 29 34 34 31 28 28 29 31 30 18 19 21 22 21 24 20 14 11 24 28 22 22 15 14 12 11 10 6
10 14 6 5 10 13 13 3 4 3 3 5 9 8 4 3 12 37 49 30 31 33 29 29 32 28 27 24 23 16 17 25 27 23 20 19 18 20 22 25 27 24 18 17 20 26 25 19 17 15 13 10 5 3
9 10 15 8 8 10 4 2 3 8 7 6 16 24 20 13 11 34 47 47 37 35 37 35 31 28 25 19 19 20 19 18 19 19 17 19 25 27 33 30 32 22 23 28 23 25 17 17 21 20 22 14 9 9
Wind_Direction_850mb
247 267 271 269 270 277 285 296 301 303 305 305 311 328 334 336 341 347 328 310 309 273 292 269 224 214 231 200 162 318 336 285 352 32 28 294 264 293 287 248 277 252 215 296 331 279 284 351 347 341 292 303 308 306
260 268 263 262 265 278 279 289 286 291 293 296 308 321 327 329 330 332 338 316 303 278 279 288 285 276 272 272 263 249 241 293 253 100 263 255 274 266 206 286 312 276 199 209 213 238 283 297 291 296 308 300 309 311
264 262 261 262 268 277 277 280 286 282 286 290 300 311 316 321 323 326 327 326 325 300 308 309 328 222 327 264 259 219 228 212 225 264 245 250 260 136 240 236 236 284 268 240 301 265 271 298 303 301 308 305 312 313
252 254 260 260 267 263 281 282 275 277 278 288 294 300 310 313 317 323 319 316 311 289 295 290 286 294 290 282 267 252 258 256 282 263 260 244 230 203 236 252 231 264 295 248 257 281 307 298 298 303 311 314 315 309
247 249 257 257 264 259 269 273 263 269 279 285 288 297 303 305 314 321 309 305 285 289 285 292 316 320 18 343 285 264 251 254 244 214 215 232 239 254 245 270 250 208 231 268 283 301 290 292 308 312 313 318 316 317
249 254 263 257 256 252 258 248 256 270 271 276 284 292 298 302 313 330 279 260 262 21 313 307 303 299 356 355 322 290 256 253 227 196 205 235 218 203 248 264 251 273 274 297 290 303 304 304 313 320 319 321 322 319
245 251 258 249 252 245 238 242 256 262 267 273 278 286 292 298 306 308 279 279 277 301 305 304 299 300 338 346 340 324 330 270 241 225 210 222 217 207 233 270 329 331 321 320 320 313 311 311 316 324 327 329 327 325
247 248 247 243 232 226 232 240 250 256 260 266 275 284 291 296 299 311 5 11 248 257 275 274 281 310 336 313 315 288 282 262 243 266 186 215 235 227 274 325 324 317 308 297 305 308 311 318 323 328 333 333 335 336
237 240 233 228 219 224 230 239 248 246 250 261 275 288 293 271 213 260 297 291 242 231 260 223 246 276 319 305 293 292 309 342 299 233 266 155 345 298 277 298 302 319 300 304 319 316 326 325 329 333 334 335 339 336
215 217 208 214 223 228 238 238 234 231 239 256 274 258 231 189 225 291 293 225 207 215 229 250 243 267 294 307 298 322 337 327 318 253 53 18 275 269 323 326 319 322 318 316 321 324 327 323 333 334 333 338 340 340
207 211 219 227 234 238 229 220 216 216 223 210 219 229 198 207 253 234 240 212 189 235 217 240 234 241 263 207 244 278 299 303 322 265 191 240 277 293 344 332 346 323 313 327 338 330 329 328 336 336 333 343 347 353
213 214 221 224 229 217 207 203 205 203 197 198 214 266 245 211 212 217 225 201 206 240 210 216 300 265 280 248 244 314 266 307 260 332 244 277 257 348 350 351 334 314 316 340 347 336 335 335 338 337 337 346 356 7
221 219 226 218 198 195 194 195 199 200 205 214 211 212 210 187 57 208 205 231 234 231 11 334 318 270 276 253 234 81 272 237 304 284 43 305 316 333 341 338 335 315 324 344 348 346 344 343 342 342 345 354 5 14
199 196 191 188 186 188 188 190 191 185 172 193 179 264 188 206 231 200 200 194 312 264 297 300 300 253 259 272 178 213 234 45 288 17 318 266 312 323 335 336 329 324 328 342 349 351 348 347 350 342 354 360 10 12
188 185 185 183 183 184 184 185 183 181 181 201 204 231 221 229 236 242 257 272 314 304 277 278 283 268 294 268 205 315 264 74 175 238 245 307 326 332 346 349 341 328 325 343 348 351 350 348 355 350 1 5 18 23
181 182 189 182 181 178 176 177 176 178 212 226 229 250 246 263 254 147 199 314 349 329 323 274 307 274 226 246 219 226 127 199 240 230 300 318 329 343 344 339 347 336 333 340 346 350 350 354 354 351 3 13 35 30
180 184 178 174 170 169 177 176 173 201 228 230 242 238 253 275 266 273 264 281 298 295 206 127 255 234 300 256 241 162 188 203 233 338 334 340 337 341 344 343 347 347 337 335 345 348 355 355 5 8 11 19 41 40
181 178 177 176 172 171 178 186 200 215 237 241 245 249 240 240 248 260 275 274 284 259 225 216 200 244 221 220 268 259 183 270 313 345 342 342 322 334 338 345 343 343 337 337 338 353 352 358 6 12 16 25 49 47
168 168 175 180 183 173 180 201 214 253 241 245 254 261 264 270 270 266 270 276 271 268 246 190 215 218 224 239 195 288 305 298 297 328 324 319 334 311 317 334 341 341 342 353 336 360 355 351 6 18 18 25 38 57
178 176 171 170 178 170 195 211 193 249 255 248 249 259 257 259 269 274 272 266 264 252 208 205 204 241 246 261 271 288 284 294 302 302 300 303 302 314 315 320 332 342 340 344 347 4 9 12 15 24 33 35 39 76
169 167 176 176 186 201 235 218 230 242 261 252 271 262 265 266 262 259 262 260 250 228 219 238 249 253 256 257 266 271 281 286 282 284 281 294 308 298 314 324 334 318 334 346 349 7 24 29 21 21 8 25 41 53
180 163 162 185 199 205 250 229 232 281 273 257 274 274 263 249 255 261 269 235 237 241 244 247 254 260 264 267 271 271 276 280 281 289 293 292 285 287 301 320 332 335 350 350 13 7 38 37 35 35 31 26 32 50
179 176 154 159 179 213 254 232 224 227 239 256 248 252 245 248 248 243 238 231 241 248 252 258 264 270 272 278 278 277 275 273 274 281 288 297 278 271 279 298 308 329 335 331 345 348 26 38 38 40 41 43 43 47
156 167 186 197 208 244 240 223 220 239 235 238 240 259 255 232 250 235 244 243 248 254 250 259 272 280 277 271 268 273 282 285 282 279 283 282 276 275 269 279 283 309 289 287 329 279 3 29 23 36 41 45 48 54
169 201 195 213 211 215 224 233 210 217 246 208 221 246 258 225 231 236 232 276 273 258 248 247 252 249 254 266 225 166 187 215 212 227 235 250 290 284 260 256 270 267 263 249 223 54 259 69 54 11 14 42 48 54
216 208 194 199 210 206 208 226 208 207 210 227 236 245 246 204 231 242 229 249 255 209 195 194 194 192 185 180 184 163 156 197 210 203 188 193 346 308 259 261 294 223 237 254 177 243 266 184 86 78 40 348 80 60
239 235 219 216 218 217 232 256 264 242 230 224 223 206 212 235 238 244 189 166 164 173 186 197 217 224 243 245 248 249 283 266 250 238 228 232 257 293 177 211 265 299 256 267 204 215 275 210 136 102 87 58 34 101
231 250 218 216 217 232 247 230 212 224 231 225 220 206 220 220 246 189 205 219 221 224 234 243 254 268 274 276 270 257 257 256 254 244 247 252 251 217 226 237 232 220 182 218 221 221 224 180 136 110 105 85 73 63
228 228 230 244 231 222 231 223 221 221 218 211 225 220 245 251 277 283 284 283 275 272 270 270 269 265 257 252 242 235 234 227 217 228 212 188 192 200 211 209 202 224 219 218 223 217 182 176 132 115 131 125 101 78
235 226 221 236 218 225 222 211 232 231 232 230 236 248 265 277 292 311 322 331 321 294 253 241 224 222 224 220 200 188 187 188 185 183 178 171 178 192 174 180 190 207 172 136 149 155 163 174 178 159 158 136 121 95
244 233 228 231 256 246 252 257 263 273 267 258 250 252 263 286 332 11 17 56 87 79 91 106 127 139 144 144 143 149 165 179 175 165 162 151 159 183 199 197 207 212 176 151 167 166 170 173 164 166 171 138 130 126
219 208 221 260 277 314 360 52 41 47 63 41 29 16 353 313 15 24 38 62 75 82 89 99 96 102 116 134 136 126 139 143 159 172 173 173 182 184 179 180 198 207 193 182 193 191 180 162 155 167 175 169 198 199
224 209 214 270 290 301 281 174 148 122 80 58 34 29 34 28 19 9 26 54 71 91 97 93 91 91 99 117 115 134 142 147 156 154 163 182 183 169 161 170 182 182 179 187 189 184 192 210 210 206 194 205 204 199